This is the latest recevied weather packets stored in our database for station/object SR8NGO-1. If no packets are shown the sender has not sent any weather packets the latest 10 day(s).
| Time | Temp. | Humidity | Pressure | Rain* | Wind** | Luminosity | Snow |
|---|---|---|---|---|---|---|---|
| 1777458038 | 12.78° C | 73% | 1013.9 hPa | 137.92 mm | - | - | - |
| 1777457798 | 12.22° C | 72% | 1013.9 hPa | 137.92 mm | - | - | - |
| 1777457558 | 12.78° C | 73% | 1013.8 hPa | 137.92 mm | - | - | - |
| 1777457318 | 12.78° C | 72% | 1013.8 hPa | 137.92 mm | - | - | - |
| 1777457078 | 12.22° C | 71% | 1013.9 hPa | 137.92 mm | - | - | - |
| 1777456838 | 11.11° C | 71% | 1013.9 hPa | 137.92 mm | - | - | - |
| 1777456598 | 11.11° C | 71% | 1013.9 hPa | 137.92 mm | - | - | - |
| 1777456358 | 11.11° C | 69% | 1013.9 hPa | 137.92 mm | - | - | - |
| 1777456118 | 12.78° C | 68% | 1013.9 hPa | 137.92 mm | - | - | - |
| 1777455878 | 11.11° C | 68% | 1013.9 hPa | 137.92 mm | - | - | - |
| 1777455638 | 12.22° C | 70% | 1013.9 hPa | 137.92 mm | - | - | - |
| 1777455398 | 12.78° C | 70% | 1013.8 hPa | 137.92 mm | - | - | - |
| 1777455158 | 10° C | 70% | 1013.9 hPa | 137.92 mm | - | - | - |
| 1777454918 | 12.22° C | 69% | 1013.8 hPa | 137.92 mm | - | - | - |
| 1777454678 | 11.11° C | 69% | 1013.8 hPa | 137.92 mm | - | - | - |
| 1777454438 | 12.78° C | 69% | 1013.8 hPa | 137.92 mm | - | - | - |
| 1777454198 | 8.89° C | 68% | 1013.8 hPa | 137.92 mm | - | - | - |
| 1777453958 | 12.22° C | 66% | 1013.7 hPa | 137.92 mm | - | - | - |
| 1777453718 | 10° C | 64% | 1013.7 hPa | 137.92 mm | - | - | - |
| 1777453478 | 12.78° C | 67% | 1013.7 hPa | 137.92 mm | - | - | - |
| 1777453238 | 10° C | 65% | 1013.7 hPa | 137.92 mm | - | - | - |
| 1777452998 | 11.11° C | 66% | 1013.7 hPa | 137.92 mm | - | - | - |
| 1777452758 | 11.11° C | 63% | 1013.8 hPa | 137.92 mm | - | - | - |
| 1777452518 | 11.11° C | 64% | 1013.8 hPa | 137.92 mm | - | - | - |
| 1777452278 | 8.89° C | 60% | 1013.7 hPa | 137.92 mm | - | - | - |
* Rain latest hour (hover to see other rain measurements)
** Current wind speed in m/s (hover to see current wind gust speed)